,,PA_Meas_PMT16A,,PR_Meas_QMR101_102,,RH_Meas_QMH101,,SR_Meas_QMS101,,TA_Meas_QMH101,,GenWind,,GenWind,
time,status,PA,status,PR,status,RH,status,SR,status,TA,status,DirAvg,status,SpdAvg,
2016-05-01, 08:12:04,VALID,918.449,VALID,0,INVALID,111.828,VALID,116.896,VALID,21.8485,VALID,175,VALID,0.0101562,
2016-05-01, 08:13:04,VALID,918.398,VALID,0,INVALID,111.935,VALID,126.028,VALID,21.8876,VALID,160,VALID,0.0121094,
2016-05-01, 08:14:04,VALID,918.38,VALID,0,INVALID,111.95,VALID,130.971,VALID,21.9071,VALID,187,VALID,0,
2016-05-01, 08:15:04,VALID,918.358,VALID,0,INVALID,112.049,VALID,134.731,VALID,21.9461,VALID,188,VALID,0,
2016-05-01, 08:16:04,VALID,918.381,VALID,0,INVALID,112.079,VALID,138.599,VALID,22.0242,VALID,182,VALID,0,
2016-05-01, 08:17:04,VALID,918.367,VALID,0,INVALID,112.14,VALID,141.822,VALID,22.0632,VALID,158,VALID,0,
2016-05-01, 08:18:04,VALID,918.394,VALID,0,INVALID,112.186,VALID,144.401,VALID,22.0827,VALID,171,VALID,1.03477,
2016-05-01, 08:19:04,VALID,918.396,VALID,0,INVALID,112.163,VALID,135.591,VALID,22.1608,VALID,170,VALID,0,
2016-05-01, 08:20:04,VALID,918.396,VALID,0,INVALID,112.156,VALID,143.326,VALID,22.2388,VALID,171,VALID,0,
2016-05-01, 08:21:04,VALID,918.427,VALID,0,INVALID,112.095,VALID,140.748,VALID,22.3364,VALID,173,VALID,0,
2016-05-01, 08:22:04,VALID,918.468,VALID,0,INVALID,112.003,VALID,131.83,VALID,22.4145,VALID,173,VALID,0,
2016-05-01, 08:23:04,VALID,918.515,VALID,0,INVALID,111.904,VALID,123.02,VALID,22.5121,VALID,150,VALID,0,
2016-05-01, 08:24:04,VALID,918.563,VALID,0,INVALID,111.775,VALID,115.714,VALID,22.5706,VALID,151,VALID,0,
2016-05-01, 08:42:04,VALID,918.605,VALID,0,INVALID,112.041,VALID,121.301,VALID,22.003,VALID,36,VALID,0,
2016-05-01, 08:43:04,VALID,918.618,VALID,0,INVALID,112.079,VALID,133.334,VALID,22.0242,VALID,36,VALID,0,
2016-05-01, 08:44:04,VALID,918.607,VALID,0,INVALID,112.095,VALID,155.038,VALID,22.042,VALID,37,VALID,0,
2016-05-01, 08:45:04,VALID,918.632,VALID,0,INVALID,112.133,VALID,175.022,VALID,22.081,VALID,53,VALID,0,
2016-05-01, 08:46:04,VALID,918.641,VALID,0,INVALID,112.125,VALID,192.749,VALID,22.1608,VALID,53,VALID,0,
2016-05-01, 08:47:04,VALID,918.646,VALID,0,INVALID,112.171,VALID,217.568,VALID,22.1998,VALID,53,VALID,0,
2016-05-01, 08:48:04,VALID,918.624,VALID,0,INVALID,112.163,VALID,221.114,VALID,22.2567,VALID,53,VALID,0,
2016-05-01, 08:49:04,VALID,918.635,VALID,0,INVALID,112.102,VALID,267.421,VALID,22.3347,VALID,53,VALID,0,
2016-05-01, 08:50:04,VALID,918.656,VALID,0,INVALID,112.095,VALID,239.916,VALID,22.3933,VALID,76,VALID,0,
2016-05-01, 08:51:04,VALID,918.643,VALID,0,INVALID,112.057,VALID,263.446,VALID,22.4908,VALID,74,VALID,0,
2016-05-01, 08:52:04,VALID,918.618,VALID,0,INVALID,111.98,VALID,297.827,VALID,22.5494,VALID,54,VALID,0,
2016-05-01, 08:53:04,VALID,918.661,VALID,0,INVALID,111.843,VALID,284.504,VALID,22.647,VALID,135,VALID,0,
2016-05-01, 08:54:04,VALID,918.682,VALID,0,INVALID,111.576,VALID,265.595,VALID,22.7836,VALID,132,VALID,0,
2016-05-01, 08:55:04,VALID,918.661,VALID,0,INVALID,111.119,VALID,225.412,VALID,22.9202,VALID,134,VALID,0,
2016-05-01, 08:56:04,VALID,918.704,VALID,0,INVALID,110.257,VALID,215.097,VALID,22.9965,VALID,133,VALID,0,
2016-05-01, 08:57:04,VALID,918.701,VALID,0,INVALID,109.297,VALID,214.882,VALID,23.1154,VALID,141,VALID,0,
2016-05-01, 08:58:04,VALID,918.732,VALID,0,VALID,104,VALID,219.932,VALID,23.2325,VALID,152,VALID,0,
2016-05-01, 08:59:04,VALID,918.707,VALID,0,VALID,104,VALID,226.271,VALID,23.252,VALID,151,VALID,0,
2016-05-01, 09:00:04,VALID,918.738,VALID,0,VALID,104,VALID,233.362,VALID,23.2911,VALID,150,VALID,0,
2016-05-01, 09:01:04,VALID,918.748,VALID,0,VALID,104,VALID,237.875,VALID,23.3496,VALID,172,VALID,0,
2016-05-01, 09:02:04,VALID,918.732,VALID,0,VALID,104,VALID,246.255,VALID,23.4064,VALID,183,VALID,0,
2016-05-01, 09:03:04,VALID,918.721,VALID,0,VALID,104,VALID,254.206,VALID,23.4845,VALID,191,VALID,0,
2016-05-01, 09:04:04,VALID,918.765,VALID,0,VALID,104,VALID,261.727,VALID,23.5235,VALID,198,VALID,1.14414,
2016-05-01, 09:05:04,VALID,918.764,VALID,0,VALID,104,VALID,265.917,VALID,23.6034,VALID,191,VALID,0.654297,
2016-05-01, 09:06:04,VALID,918.758,VALID,0,VALID,104,VALID,267.743,VALID,23.5626,VALID,167,VALID,0,
2016-05-01, 09:07:04,VALID,918.76,VALID,0,VALID,104,VALID,254.958,VALID,23.543,VALID,167,VALID,0.669141,
2016-05-01, 09:08:04,VALID,918.736,VALID,0,VALID,104,VALID,247.437,VALID,23.4863,VALID,156,VALID,1.18398,
2016-05-01, 09:09:04,VALID,918.775,VALID,0,VALID,104,VALID,241.743,VALID,23.4082,VALID,168,VALID,1.20742,
2016-05-01, 09:10:04,VALID,918.786,VALID,0,VALID,104,VALID,236.048,VALID,23.3496,VALID,159,VALID,0.813672,
2016-05-01, 09:11:04,VALID,918.771,VALID,0,VALID,104,VALID,229.065,VALID,23.3106,VALID,133,VALID,1.50469,
2016-05-01, 09:12:04,VALID,918.785,VALID,0,VALID,104,VALID,224.015,VALID,23.252,VALID,165,VALID,0.938672,
2016-05-01, 09:13:04,VALID,918.764,VALID,0,VALID,104,VALID,221.651,VALID,23.252,VALID,165,VALID,0,
2016-05-01, 09:14:04,VALID,918.749,VALID,0,VALID,104,VALID,228.527,VALID,23.2698,VALID,160,VALID,0,
2016-05-01, 09:15:04,VALID,918.702,VALID,0,VALID,104,VALID,250.338,VALID,23.3301,VALID,133,VALID,0,
2016-05-01, 09:16:04,VALID,918.716,VALID,0,VALID,104,VALID,252.594,VALID,23.3674,VALID,94,VALID,0,
2016-05-01, 09:17:04,VALID,918.696,VALID,0,VALID,104,VALID,269.677,VALID,23.4277,VALID,115,VALID,0,
2016-05-01, 09:18:04,VALID,918.693,VALID,0,VALID,104,VALID,306.422,VALID,23.4845,VALID,117,VALID,0,
2016-05-01, 09:19:04,VALID,918.661,VALID,0,VALID,104,VALID,359.606,VALID,23.5626,VALID,77,VALID,0,
2016-05-01, 09:20:04,VALID,918.616,VALID,0,VALID,104,VALID,413.971,VALID,23.7578,VALID,108,VALID,0,
2016-05-01, 09:21:04,VALID,918.649,VALID,0,VALID,104,VALID,413.756,VALID,23.8944,VALID,159,VALID,0,
2016-05-01, 09:22:04,VALID,918.634,VALID,0,VALID,104,VALID,324.365,VALID,23.953,VALID,147,VALID,0,
2016-05-01, 09:23:04,VALID,918.616,VALID,0,VALID,104,VALID,299.116,VALID,23.9743,VALID,138,VALID,0,
2016-05-01, 09:24:04,VALID,918.575,VALID,0,VALID,104,VALID,272.256,VALID,23.953,VALID,137,VALID,0,
2016-05-01, 09:25:04,VALID,918.589,VALID,0,VALID,104,VALID,238.304,VALID,23.953,VALID,162,VALID,0,
2016-05-01, 09:26:04,VALID,918.558,VALID,0,VALID,103.48,VALID,224.122,VALID,23.9725,VALID,137,VALID,0,
2016-05-01, 09:27:04,VALID,918.582,VALID,0,VALID,103.282,VALID,214.238,VALID,24.0311,VALID,111,VALID,0,
2016-05-01, 09:28:04,VALID,918.632,VALID,0,VALID,104,VALID,208.543,VALID,24.1287,VALID,135,VALID,0,
2016-05-01, 09:29:04,VALID,918.636,VALID,0,VALID,103.846,VALID,205.32,VALID,24.2068,VALID,51,VALID,0,
2016-05-01, 09:30:04,VALID,918.64,VALID,0,VALID,102.626,VALID,205.213,VALID,24.2849,VALID,172,VALID,0,
2016-05-01, 09:31:04,VALID,918.628,VALID,0,VALID,103.107,VALID,205.642,VALID,24.3435,VALID,167,VALID,0,
2016-05-01, 09:32:04,VALID,918.651,VALID,0,VALID,102.139,VALID,207.039,VALID,24.363,VALID,84,VALID,0,
2016-05-01, 09:33:04,VALID,918.695,VALID,0,VALID,98.2201,VALID,201.989,VALID,24.2849,VALID,74,VALID,0,
2016-05-01, 09:34:04,VALID,918.708,VALID,0,VALID,101.43,VALID,198.874,VALID,24.1873,VALID,43,VALID,0,
2016-05-01, 09:35:04,VALID,918.667,VALID,0,VALID,103.069,VALID,186.84,VALID,24.2654,VALID,43,VALID,0,
2016-05-01, 09:36:04,VALID,918.672,VALID,0,VALID,102.337,VALID,174.592,VALID,24.3239,VALID,95,VALID,0,
2016-05-01, 09:37:04,VALID,918.689,VALID,0,VALID,98.4259,VALID,166.856,VALID,24.2068,VALID,99,VALID,0,
2016-05-01, 09:38:04,VALID,918.64,VALID,0,VALID,99.821,VALID,163.525,VALID,24.1659,VALID,98,VALID,0,
2016-05-01, 09:39:04,VALID,918.646,VALID,0,VALID,100.69,VALID,162.666,VALID,24.1269,VALID,98,VALID,0,
2016-05-01, 09:40:04,VALID,918.596,VALID,0,VALID,102.916,VALID,163.203,VALID,24.1464,VALID,98,VALID,0,
2016-05-01, 09:41:04,VALID,918.588,VALID,0,VALID,103.938,VALID,163.633,VALID,24.2654,VALID,98,VALID,0,
2016-05-01, 09:42:04,VALID,918.537,VALID,0,VALID,103.938,VALID,162.988,VALID,24.363,VALID,98,VALID,0,
2016-05-01, 09:43:04,VALID,918.55,VALID,0,VALID,103.069,VALID,162.881,VALID,24.4997,VALID,98,VALID,0,
2016-05-01, 09:44:04,VALID,918.526,VALID,0,VALID,97.6865,VALID,163.955,VALID,24.5973,VALID,98,VALID,0,
2016-05-01, 09:45:04,VALID,918.552,VALID,0,VALID,94.2712,VALID,165.567,VALID,24.6345,VALID,162,VALID,0,
2016-05-01, 09:46:04,VALID,918.498,VALID,0,VALID,84.0939,VALID,167.286,VALID,24.5759,VALID,185,VALID,0,
2016-05-01, 09:47:04,VALID,918.523,VALID,0,VALID,85.5195,VALID,167.823,VALID,24.5192,VALID,191,VALID,0,
2016-05-01, 09:48:04,VALID,918.507,VALID,0,VALID,89.72,VALID,167.178,VALID,24.4978,VALID,192,VALID,0,
2016-05-01, 09:49:04,VALID,918.528,VALID,0,VALID,88.7366,VALID,166.641,VALID,24.4801,VALID,183,VALID,0,
2016-05-01, 09:50:04,VALID,918.5,VALID,0,VALID,94.9649,VALID,166.749,VALID,24.4783,VALID,183,VALID,0,
2016-05-01, 09:51:04,VALID,918.502,VALID,0,VALID,86.3428,VALID,169.22,VALID,24.4606,VALID,183,VALID,0,
2016-05-01, 09:52:04,VALID,918.472,VALID,0,VALID,94.9725,VALID,170.402,VALID,24.4216,VALID,178,VALID,0,
2016-05-01, 09:53:04,VALID,918.422,VALID,0,VALID,96.7945,VALID,172.013,VALID,24.4002,VALID,178,VALID,0,
2016-05-01, 09:54:04,VALID,918.435,VALID,0,VALID,99.0282,VALID,173.195,VALID,24.4392,VALID,169,VALID,0,
2016-05-01, 09:55:04,VALID,918.4,VALID,0,VALID,99.7829,VALID,175.344,VALID,24.4606,VALID,161,VALID,0,
2016-05-01, 09:56:04,VALID,918.395,VALID,0,VALID,92.3043,VALID,177.493,VALID,24.3026,VALID,131,VALID,0,
2016-05-01, 09:57:04,VALID,918.363,VALID,0,VALID,98.1362,VALID,179.534,VALID,24.2263,VALID,158,VALID,0,
2016-05-01, 09:58:04,VALID,918.355,VALID,0,VALID,99.8972,VALID,183.295,VALID,24.1854,VALID,133,VALID,0,
2016-05-01, 09:59:04,VALID,918.388,VALID,0,VALID,99.3941,VALID,187.592,VALID,24.1677,VALID,148,VALID,0,
2016-05-01, 10:00:04,VALID,918.369,VALID,0,VALID,101.674,VALID,192.427,VALID,24.1482,VALID,137,VALID,0,
2016-05-01, 10:01:04,VALID,918.384,VALID,0,VALID,100.378,VALID,198.229,VALID,24.1287,VALID,138,VALID,0.453516,
2016-05-01, 10:02:04,VALID,918.341,VALID,0,VALID,95.0564,VALID,205.857,VALID,24.0311,VALID,140,VALID,1.0918,
2016-05-01, 10:03:04,VALID,918.31,VALID,0,VALID,94.1263,VALID,216.279,VALID,23.9725,VALID,171,VALID,1.18555,
2016-05-01, 10:04:04,VALID,918.323,VALID,0,VALID,95.0945,VALID,226.164,VALID,23.953,VALID,157,VALID,0.0628906,
2016-05-01, 10:05:04,VALID,918.32,VALID,0,VALID,96.703,VALID,234.866,VALID,23.9316,VALID,160,VALID,0.469922,
2016-05-01, 10:06:04,VALID,918.292,VALID,0,VALID,99.0282,VALID,232.395,VALID,23.9316,VALID,148,VALID,0.210547,
2016-05-01, 10:07:04,VALID,918.275,VALID,0,VALID,100.256,VALID,226.486,VALID,23.8926,VALID,138,VALID,0.908984,
2016-05-01, 10:08:04,VALID,918.264,VALID,0,VALID,99.051,VALID,222.726,VALID,23.8731,VALID,154,VALID,0,
2016-05-01, 10:09:04,VALID,918.251,VALID,0,VALID,101.369,VALID,222.296,VALID,23.8536,VALID,150,VALID,0.767969,
2016-05-01, 10:10:04,VALID,918.247,VALID,0,VALID,99.2569,VALID,223.263,VALID,23.8536,VALID,131,VALID,0.140625,
2016-05-01, 10:11:04,VALID,918.212,VALID,0,VALID,98.8452,VALID,224.767,VALID,23.8536,VALID,134,VALID,1.2418,
2016-05-01, 10:12:04,VALID,918.177,VALID,0,VALID,99.5771,VALID,207.899,VALID,23.8572,VALID,142,VALID,0.665234,
2016-05-01, 10:13:04,VALID,918.146,VALID,0,VALID,101.033,VALID,200.163,VALID,23.8554,VALID,173,VALID,1.3793,
2016-05-01, 10:14:04,VALID,918.115,VALID,0,VALID,96.9317,VALID,198.551,VALID,23.9139,VALID,135,VALID,0.111719,
2016-05-01, 10:15:04,VALID,918.084,VALID,0,VALID,93.9434,VALID,208.221,VALID,23.9335,VALID,152,VALID,0.230469,
2016-05-01, 10:16:04,VALID,918.115,VALID,0,VALID,96.8784,VALID,220.792,VALID,23.9139,VALID,131,VALID,1.73359,
2016-05-01, 10:17:04,VALID,918.121,VALID,0,VALID,94.0577,VALID,217.246,VALID,23.8944,VALID,132,VALID,0.828516,
2016-05-01, 10:18:04,VALID,918.109,VALID,0,VALID,93.5088,VALID,218.75,VALID,23.9335,VALID,129,VALID,1.35625,
2016-05-01, 10:19:04,VALID,918.104,VALID,0,VALID,92.3272,VALID,235.618,VALID,23.9743,VALID,148,VALID,0,
2016-05-01, 10:20:04,VALID,918.114,VALID,0,VALID,98.891,VALID,263.231,VALID,23.9725,VALID,158,VALID,0,
2016-05-01, 10:21:04,VALID,918.098,VALID,0,VALID,97.9914,VALID,329.2,VALID,23.992,VALID,124,VALID,0.0605469,
2016-05-01, 10:22:04,VALID,918.127,VALID,0,VALID,96.3524,VALID,573.843,VALID,24.0896,VALID,129,VALID,0,
2016-05-01, 10:23:04,VALID,918.106,VALID,0,VALID,95.7577,VALID,697.401,VALID,24.2849,VALID,142,VALID,0,
2016-05-01, 10:24:04,VALID,918.104,VALID,0,VALID,89.0339,VALID,686.119,VALID,24.4801,VALID,168,VALID,1.94453,
2016-05-01, 10:25:04,VALID,918.037,VALID,0,VALID,84.01,VALID,288.694,VALID,24.6559,VALID,140,VALID,0,
2016-05-01, 10:26:04,VALID,918.022,VALID,0,VALID,86.0531,VALID,268.818,VALID,24.7926,VALID,174,VALID,0.0195313,
2016-05-01, 10:27:04,VALID,918.017,VALID,0,VALID,80.9912,VALID,294.389,VALID,24.8688,VALID,108,VALID,0,
2016-05-01, 10:28:04,VALID,918.017,VALID,0,VALID,81.8069,VALID,270.322,VALID,24.9488,VALID,132,VALID,0,
2016-05-01, 10:29:04,VALID,917.989,VALID,0,VALID,79.8782,VALID,280.744,VALID,24.9078,VALID,127,VALID,1.53828,
2016-05-01, 10:30:04,VALID,917.967,VALID,0,VALID,80.8844,VALID,496.915,VALID,24.8688,VALID,115,VALID,1.03477,
2016-05-01, 10:31:04,VALID,917.917,VALID,0,VALID,81.319,VALID,613.382,VALID,24.8883,VALID,72,VALID,0.503906,
2016-05-01, 10:32:04,VALID,917.901,VALID,0,VALID,78.666,VALID,615.96,VALID,24.9859,VALID,61,VALID,0.928516,
2016-05-01, 10:33:04,VALID,917.918,VALID,0,VALID,81.5782,VALID,417.301,VALID,25.1617,VALID,37,VALID,0.110547,
2016-05-01, 10:34:04,VALID,917.861,VALID,0,VALID,79.1844,VALID,384.962,VALID,25.3374,VALID,57,VALID,1.60078,
2016-05-01, 10:35:04,VALID,917.878,VALID,0,VALID,78.7804,VALID,338.547,VALID,25.3746,VALID,142,VALID,0,
2016-05-01, 10:36:04,VALID,917.825,VALID,0,VALID,79.7104,VALID,281.926,VALID,25.357,VALID,104,VALID,0,
2016-05-01, 10:37:04,VALID,917.824,VALID,0,VALID,78.4983,VALID,291.488,VALID,25.3374,VALID,92,VALID,0,
2016-05-01, 10:38:04,VALID,917.833,VALID,0,VALID,78.3535,VALID,292.347,VALID,25.2808,VALID,24,VALID,0.336719,
2016-05-01, 10:39:04,VALID,917.798,VALID,0,VALID,79.6723,VALID,305.563,VALID,25.3003,VALID,78,VALID,0.214844,
2016-05-01, 10:40:04,VALID,917.797,VALID,0,VALID,81.7001,VALID,311.15,VALID,25.3198,VALID,83,VALID,0,
2016-05-01, 10:41:04,VALID,917.796,VALID,0,VALID,79.436,VALID,344.027,VALID,25.2612,VALID,122,VALID,0,
2016-05-01, 10:42:04,VALID,917.788,VALID,0,VALID,80.6405,VALID,406.987,VALID,25.2965,VALID,75,VALID,0,
2016-05-01, 10:43:04,VALID,917.772,VALID,0,VALID,79.1539,VALID,404.086,VALID,25.3746,VALID,39,VALID,0.00429688,
2016-05-01, 10:44:04,VALID,917.783,VALID,0,VALID,79.032,VALID,384.424,VALID,25.4722,VALID,41,VALID,0,
2016-05-01, 10:45:04,VALID,917.779,VALID,0,VALID,76.4324,VALID,355.63,VALID,25.5113,VALID,44,VALID,0.343359,
2016-05-01, 10:46:04,VALID,917.786,VALID,0,VALID,76.7983,VALID,382.168,VALID,25.4937,VALID,58,VALID,0.853906,
2016-05-01, 10:47:04,VALID,917.762,VALID,0,VALID,77.5835,VALID,511.312,VALID,25.4722,VALID,32,VALID,0.0195313,
2016-05-01, 10:48:04,VALID,917.77,VALID,0,VALID,77.3319,VALID,477.898,VALID,25.4546,VALID,33,VALID,2.07422,
2016-05-01, 10:49:04,VALID,917.742,VALID,0,VALID,77.6597,VALID,744.567,VALID,25.4546,VALID,60,VALID,0.0417969,
2016-05-01, 10:50:04,VALID,917.754,VALID,0,VALID,76.6992,VALID,605.753,VALID,25.5523,VALID,42,VALID,0,
2016-05-01, 10:51:04,VALID,917.766,VALID,0,VALID,78.2772,VALID,658.614,VALID,25.6304,VALID,9,VALID,1.26914,
2016-05-01, 10:52:04,VALID,917.76,VALID,0,VALID,77.5911,VALID,691.384,VALID,25.7866,VALID,29,VALID,0,
2016-05-01, 10:53:04,VALID,917.683,VALID,0,VALID,76.8745,VALID,643.787,VALID,25.982,VALID,25,VALID,0.772266,
2016-05-01, 10:54:04,VALID,917.724,VALID,0,VALID,74.7095,VALID,684.4,VALID,25.98,VALID,359,VALID,1.48672,
2016-05-01, 10:55:04,VALID,917.733,VALID,0,VALID,79.0929,VALID,683.326,VALID,26.1382,VALID,360,VALID,0.364844,
2016-05-01, 10:56:04,VALID,917.739,VALID,0,VALID,73.5431,VALID,688.375,VALID,26.3511,VALID,68,VALID,0.207031,
2016-05-01, 10:57:04,VALID,917.73,VALID,0,VALID,73.0018,VALID,612.629,VALID,26.3531,VALID,87,VALID,0.395312,
2016-05-01, 10:58:04,VALID,917.758,VALID,0,VALID,74.0844,VALID,470.915,VALID,26.2534,VALID,71,VALID,0.438281,
2016-05-01, 10:59:04,VALID,917.733,VALID,0,VALID,75.0983,VALID,465.113,VALID,26.1167,VALID,52,VALID,1.97383,
2016-05-01, 11:00:04,VALID,917.716,VALID,0,VALID,74.1453,VALID,405.805,VALID,25.98,VALID,45,VALID,0.365625,
2016-05-01, 11:01:04,VALID,917.691,VALID,0,VALID,74.6866,VALID,382.598,VALID,25.98,VALID,35,VALID,0,
2016-05-01, 11:02:04,VALID,917.691,VALID,0,VALID,75.5938,VALID,336.721,VALID,26.019,VALID,118,VALID,0.240234,
2016-05-01, 11:03:04,VALID,917.654,VALID,0,VALID,76.905,VALID,306.422,VALID,25.9604,VALID,2,VALID,2.43008,
2016-05-01, 11:04:04,VALID,917.689,VALID,0,VALID,78.2696,VALID,312.761,VALID,25.8823,VALID,19,VALID,1.51211,
2016-05-01, 11:05:04,VALID,917.637,VALID,0,VALID,79.9391,VALID,309.323,VALID,25.7456,VALID,36,VALID,1.45391,
2016-05-01, 11:06:04,VALID,917.622,VALID,0,VALID,82.0203,VALID,303.414,VALID,25.687,VALID,36,VALID,1.01758,
2016-05-01, 11:07:04,VALID,917.638,VALID,0,VALID,77.675,VALID,310.72,VALID,25.6851,VALID,49,VALID,1.38906,
2016-05-01, 11:08:04,VALID,917.63,VALID,0,VALID,77.492,VALID,337.688,VALID,25.648,VALID,90,VALID,1.31719,
2016-05-01, 11:09:04,VALID,917.568,VALID,0,VALID,76.1046,VALID,372.069,VALID,25.6675,VALID,31,VALID,1.09844,
2016-05-01, 11:10:04,VALID,917.554,VALID,0,VALID,74.1072,VALID,397.21,VALID,25.7066,VALID,55,VALID,1.80781,
2016-05-01, 11:11:04,VALID,917.543,VALID,0,VALID,76.3866,VALID,410.64,VALID,25.5894,VALID,43,VALID,1.95586,
2016-05-01, 11:12:04,VALID,917.512,VALID,0,VALID,76.2875,VALID,499.279,VALID,25.6284,VALID,23,VALID,0.707812,
2016-05-01, 11:13:04,VALID,917.505,VALID,0,VALID,76.9431,VALID,615.423,VALID,25.7066,VALID,61,VALID,0.530078,
2016-05-01, 11:14:04,VALID,917.511,VALID,0,VALID,77.6064,VALID,563.099,VALID,25.7847,VALID,24,VALID,1.38242,
2016-05-01, 11:15:04,VALID,917.462,VALID,0,VALID,77.1413,VALID,534.52,VALID,25.8823,VALID,20,VALID,1.8625,
2016-05-01, 11:16:04,VALID,917.425,VALID,0,VALID,74.7476,VALID,709.864,VALID,25.8022,VALID,54,VALID,2.15156,
2016-05-01, 11:17:04,VALID,917.467,VALID,0,VALID,76.3485,VALID,650.019,VALID,25.9409,VALID,51,VALID,1.71758,
2016-05-01, 11:18:04,VALID,917.478,VALID,0,VALID,74.6409,VALID,718.674,VALID,26.0581,VALID,81,VALID,1.08789,
2016-05-01, 11:19:04,VALID,917.465,VALID,0,VALID,74.2978,VALID,607.15,VALID,26.0386,VALID,67,VALID,1.59609,
2016-05-01, 11:20:04,VALID,917.452,VALID,0,VALID,73.4745,VALID,555.793,VALID,26.1753,VALID,49,VALID,1.69102,
2016-05-01, 11:21:04,VALID,917.494,VALID,0,VALID,73.6498,VALID,557.62,VALID,26.1753,VALID,103,VALID,0.0621094,
2016-05-01, 11:22:04,VALID,917.49,VALID,0,VALID,72.5444,VALID,607.472,VALID,26.1928,VALID,66,VALID,1.18711,
2016-05-01, 11:23:04,VALID,917.524,VALID,0,VALID,73.6956,VALID,512.602,VALID,26.0952,VALID,70,VALID,0.766797,
2016-05-01, 11:24:04,VALID,917.533,VALID,0,VALID,74.2902,VALID,508.089,VALID,26.0171,VALID,71,VALID,0.177344,
2016-05-01, 11:25:04,VALID,917.496,VALID,0,VALID,75.327,VALID,504.006,VALID,26.0171,VALID,28,VALID,0.485938,
2016-05-01, 11:26:04,VALID,917.526,VALID,0,VALID,75.6624,VALID,454.261,VALID,26.0366,VALID,54,VALID,0.450781,
2016-05-01, 11:27:04,VALID,917.549,VALID,0,VALID,73.0628,VALID,513.676,VALID,26.1167,VALID,47,VALID,1.35703,
2016-05-01, 11:28:04,VALID,917.541,VALID,0,VALID,73.4592,VALID,527.429,VALID,26.0386,VALID,49,VALID,1.25937,
2016-05-01, 11:29:04,VALID,917.563,VALID,0,VALID,74.4198,VALID,541.074,VALID,26.019,VALID,38,VALID,1.4918,
2016-05-01, 11:30:04,VALID,917.542,VALID,0,VALID,74.6942,VALID,520.875,VALID,26.0581,VALID,52,VALID,0,
2016-05-01, 11:31:04,VALID,917.523,VALID,0,VALID,76.7907,VALID,586.306,VALID,26.0972,VALID,57,VALID,0.973828,
2016-05-01, 11:32:04,VALID,917.532,VALID,0,VALID,72.9866,VALID,598.877,VALID,26.0581,VALID,32,VALID,0.766406,
2016-05-01, 11:33:04,VALID,917.51,VALID,0,VALID,74.7476,VALID,593.29,VALID,26.0581,VALID,50,VALID,1.45,
2016-05-01, 11:34:04,VALID,917.519,VALID,0,VALID,75.0373,VALID,510.775,VALID,26.1753,VALID,44,VALID,0.0414063,
2016-05-01, 11:35:04,VALID,917.521,VALID,0,VALID,72.6283,VALID,535.487,VALID,26.3491,VALID,157,VALID,1.91953,
2016-05-01, 11:36:04,VALID,917.498,VALID,0,VALID,72.331,VALID,569.546,VALID,26.312,VALID,104,VALID,0.00195313,
2016-05-01, 11:37:04,VALID,917.478,VALID,0,VALID,74.0615,VALID,542.9,VALID,26.2925,VALID,107,VALID,0.948438,
2016-05-01, 11:38:04,VALID,917.482,VALID,0,VALID,72.148,VALID,533.123,VALID,26.1928,VALID,138,VALID,1.60625,
2016-05-01, 11:39:04,VALID,917.455,VALID,0,VALID,74.8848,VALID,589.1,VALID,26.1558,VALID,141,VALID,0.0332031,
2016-05-01, 11:40:04,VALID,917.447,VALID,0,VALID,73.627,VALID,561.81,VALID,26.1948,VALID,111,VALID,0.322266,
2016-05-01, 11:41:04,VALID,917.434,VALID,0,VALID,73.3601,VALID,812.577,VALID,26.1948,VALID,121,VALID,0.336328,
2016-05-01, 11:42:04,VALID,917.384,VALID,0,VALID,73.9624,VALID,699.872,VALID,26.1948,VALID,118,VALID,0.00078125,
2016-05-01, 11:43:04,VALID,917.384,VALID,0,VALID,75.0678,VALID,403.764,VALID,26.3491,VALID,127,VALID,0.00859375,
2016-05-01, 11:44:04,VALID,917.348,VALID,0,VALID,73.4592,VALID,582.868,VALID,26.3511,VALID,121,VALID,0,
2016-05-01, 11:45:04,VALID,917.368,VALID,0,VALID,73.8709,VALID,355.523,VALID,26.3686,VALID,139,VALID,0.453516,
2016-05-01, 11:46:04,VALID,917.329,VALID,0,VALID,74.2673,VALID,331.993,VALID,26.4272,VALID,78,VALID,0,
2016-05-01, 11:47:04,VALID,917.37,VALID,0,VALID,73.0476,VALID,344.027,VALID,26.5269,VALID,67,VALID,0.497266,
2016-05-01, 11:48:04,VALID,917.335,VALID,0,VALID,73.2915,VALID,309.431,VALID,26.4468,VALID,59,VALID,1.78633,
2016-05-01, 11:49:04,VALID,917.34,VALID,0,VALID,73.0247,VALID,285.256,VALID,26.3491,VALID,45,VALID,1.57109,
2016-05-01, 11:50:04,VALID,917.328,VALID,0,VALID,70.6996,VALID,276.446,VALID,26.273,VALID,47,VALID,0,
2016-05-01, 11:51:04,VALID,917.327,VALID,0,VALID,73.1543,VALID,266.024,VALID,26.2124,VALID,55,VALID,0.357812,
2016-05-01, 11:52:04,VALID,917.346,VALID,0,VALID,75.9521,VALID,256.355,VALID,26.1538,VALID,39,VALID,1.03906,
2016-05-01, 11:53:04,VALID,917.316,VALID,0,VALID,76.9813,VALID,253.561,VALID,25.9975,VALID,5,VALID,2.39727,
2016-05-01, 11:54:04,VALID,917.306,VALID,0,VALID,78.1629,VALID,264.628,VALID,25.8804,VALID,359,VALID,0.792578,
2016-05-01, 11:55:04,VALID,917.274,VALID,0,VALID,77.9342,VALID,301.05,VALID,25.9019,VALID,7,VALID,1.33438,
2016-05-01, 11:56:04,VALID,917.283,VALID,0,VALID,78.0409,VALID,409.673,VALID,25.7827,VALID,15,VALID,0.885156,
2016-05-01, 11:57:04,VALID,917.274,VALID,0,VALID,78.3535,VALID,472.311,VALID,25.8218,VALID,16,VALID,0,
2016-05-01, 11:58:04,VALID,917.24,VALID,0,VALID,78.7499,VALID,410.748,VALID,25.9975,VALID,9,VALID,0,
2016-05-01, 11:59:04,VALID,917.24,VALID,0,VALID,78.1248,VALID,408.921,VALID,26.1948,VALID,19,VALID,0.589453,
2016-05-01, 12:00:04,VALID,917.236,VALID,0,VALID,78.8185,VALID,461.782,VALID,26.2905,VALID,40,VALID,0,
2016-05-01, 12:01:04,VALID,917.226,VALID,0,VALID,77.1642,VALID,555.256,VALID,26.4077,VALID,54,VALID,0,
2016-05-01, 12:02:04,VALID,917.264,VALID,0,VALID,78.3611,VALID,666.135,VALID,26.4097,VALID,43,VALID,0.186328,
2016-05-01, 12:03:04,VALID,917.239,VALID,0,VALID,75.4032,VALID,544.082,VALID,26.4858,VALID,66,VALID,0.408594,
2016-05-01, 12:04:04,VALID,917.203,VALID,0,VALID,76.7754,VALID,468.873,VALID,26.5249,VALID,40,VALID,0.480078,
2016-05-01, 12:05:04,VALID,917.213,VALID,0,VALID,73.261,VALID,452.542,VALID,26.31,VALID,87,VALID,0.0121094,
2016-05-01, 12:06:04,VALID,917.245,VALID,0,VALID,76.9889,VALID,560.843,VALID,26.2514,VALID,89,VALID,0,
2016-05-01, 12:07:04,VALID,917.202,VALID,0,VALID,74.9229,VALID,492.725,VALID,26.3902,VALID,357,VALID,1.16172,
2016-05-01, 12:08:04,VALID,917.208,VALID,0,VALID,75.5709,VALID,411.177,VALID,26.3491,VALID,27,VALID,2.08516,
2016-05-01, 12:09:04,VALID,917.198,VALID,0,VALID,76.8593,VALID,455.443,VALID,26.3316,VALID,2,VALID,1.20898,
2016-05-01, 12:10:04,VALID,917.168,VALID,0,VALID,73.7947,VALID,419.128,VALID,26.3511,VALID,16,VALID,0.00585938,